SB KEPS @ AMSAT $ORB13318.O Orbital Elements 13318.OSCAR
HR AMSAT ORBITAL ELEMENTS FOR OSCAR SATELLITES FROM WA5QGD FORT WORTH,TX November 14, 2013 BID: ORB13318.O TO ALL RADIO AMATEURS BT
Satellite: AO-07 Catalog number: 07530 Epoch time: 13318.22330133 Element set: 823 Inclination: 101.4479 deg RA of node: 302.3654 deg Eccentricity: 0.0011962 Arg of perigee: 356.6539 deg Mean anomaly: 072.3373 deg Mean motion: 12.53599962 rev/day Decay rate: -4.3e-07 rev/day^2 Epoch rev: 78458 Checksum: 300
Satellite: FO-29 Catalog number: 24278 Epoch time: 13318.78288131 Element set: 240 Inclination: 098.5348 deg RA of node: 357.0624 deg Eccentricity: 0.0351362 Arg of perigee: 133.7490 deg Mean anomaly: 337.6236 deg Mean motion: 13.53009598 rev/day Decay rate: -2.9e-07 rev/day^2 Epoch rev: 85167 Checksum: 328
Satellite: SO-33 Catalog number: 25509 Epoch time: 13317.40983380 Element set: 625 Inclination: 031.4321 deg RA of node: 302.6712 deg Eccentricity: 0.0350514 Arg of perigee: 024.4340 deg Mean anomaly: 137.4109 deg Mean motion: 14.29223936 rev/day Decay rate: 5.96e-06 rev/day^2 Epoch rev: 78625 Checksum: 284
Satellite: RS-22 Catalog number: 27939 Epoch time: 13318.76196641 Element set: 947 Inclination: 097.7978 deg RA of node: 138.7885 deg Eccentricity: 0.0014437 Arg of perigee: 069.6882 deg Mean anomaly: 290.5869 deg Mean motion: 14.64668572 rev/day Decay rate: 1.222e-05 rev/day^2 Epoch rev: 54133 Checksum: 375
Satellite: VO-52 Catalog number: 28650 Epoch time: 13318.81083051 Element set: 579 Inclination: 097.5627 deg RA of node: 329.6788 deg Eccentricity: 0.0026795 Arg of perigee: 142.2149 deg Mean anomaly: 270.4798 deg Mean motion: 14.84326440 rev/day Decay rate: 2.222e-05 rev/day^2 Epoch rev: 46142 Checksum: 329
Satellite: HO-68 Catalog number: 36122 Epoch time: 13318.84755727 Element set: 62 Inclination: 100.2843 deg RA of node: 011.9571 deg Eccentricity: 0.0007295 Arg of perigee: 011.9091 deg Mean anomaly: 348.2181 deg Mean motion: 13.16308684 rev/day Decay rate: -4.4e-07 rev/day^2 Epoch rev: 18823 Checksum: 292
/EX SB KEPS @ AMSAT $ORB13318.D Orbital Elements 13318.MICROS
HR AMSAT ORBITAL ELEMENTS FOR THE MICROSATS FROM WA5QGD FORT WORTH,TX November 14, 2013 BID: ORB13318.D TO ALL RADIO AMATEURS BT
Satellite: UO-11 Catalog number: 14781 Epoch time: 13317.96327973 Element set: 335 Inclination: 097.8844 deg RA of node: 016.9904 deg Eccentricity: 0.0009722 Arg of perigee: 155.1995 deg Mean anomaly: 204.9687 deg Mean motion: 14.81102973 rev/day Decay rate: 9.79e-06 rev/day^2 Epoch rev: 59610 Checksum: 347
Satellite: AO-16 Catalog number: 20439 Epoch time: 13318.44166957 Element set: 883 Inclination: 098.4868 deg RA of node: 255.0739 deg Eccentricity: 0.0011967 Arg of perigee: 077.1293 deg Mean anomaly: 056.1348 deg Mean motion: 14.32230310 rev/day Decay rate: 2.43e-06 rev/day^2 Epoch rev: 24374 Checksum: 314
Satellite: LO-19 Catalog number: 20442 Epoch time: 13318.09589245 Element set: 822 Inclination: 098.4567 deg RA of node: 256.0492 deg Eccentricity: 0.0012889 Arg of perigee: 068.5804 deg Mean anomaly: 357.4662 deg Mean motion: 14.32437937 rev/day Decay rate: 2.44e-06 rev/day^2 Epoch rev: 24389 Checksum: 340
Satellite: AO-27 Catalog number: 22825 Epoch time: 13318.48823888 Element set: 526 Inclination: 098.6366 deg RA of node: 261.0371 deg Eccentricity: 0.0008154 Arg of perigee: 200.0908 deg Mean anomaly: 295.3633 deg Mean motion: 14.29611682 rev/day Decay rate: 1.96e-06 rev/day^2 Epoch rev: 5010 Checksum: 304
Satellite: IO-26 Catalog number: 22826 Epoch time: 13318.78763780 Element set: 281 Inclination: 098.6310 deg RA of node: 261.5908 deg Eccentricity: 0.0008849 Arg of perigee: 192.5881 deg Mean anomaly: 199.5855 deg Mean motion: 14.29901249 rev/day Decay rate: 2.24e-06 rev/day^2 Epoch rev: 5028 Checksum: 338
Satellite: GO-32 Catalog number: 25397 Epoch time: 13318.49901554 Element set: 206 Inclination: 098.4380 deg RA of node: 279.8777 deg Eccentricity: 0.0001278 Arg of perigee: 163.5809 deg Mean anomaly: 334.4264 deg Mean motion: 14.23373811 rev/day Decay rate: 1.02e-06 rev/day^2 Epoch rev: 79732 Checksum: 321
Satellite: NO-44 Catalog number: 26931 Epoch time: 13317.78636383 Element set: 465 Inclination: 067.0524 deg RA of node: 233.8459 deg Eccentricity: 0.0006812 Arg of perigee: 263.1031 deg Mean anomaly: 154.5907 deg Mean motion: 14.29984996 rev/day Decay rate: 2.15e-06 rev/day^2 Epoch rev: 63281 Checksum: 324
Satellite: SO-50 Catalog number: 27607 Epoch time: 13318.77574571 Element set: 223 Inclination: 064.5552 deg RA of node: 165.6313 deg Eccentricity: 0.0032325 Arg of perigee: 101.7718 deg Mean anomaly: 025.1609 deg Mean motion: 14.73180639 rev/day Decay rate: 1.021e-05 rev/day^2 Epoch rev: 58589 Checksum: 298
Satellite: CO-55 Catalog number: 27844 Epoch time: 13318.52335859 Element set: 786 Inclination: 098.7004 deg RA of node: 325.4158 deg Eccentricity: 0.0010118 Arg of perigee: 169.7403 deg Mean anomaly: 341.8904 deg Mean motion: 14.21308168 rev/day Decay rate: 3.90e-06 rev/day^2 Epoch rev: 53808 Checksum: 318
Satellite: CO-57 Catalog number: 27848 Epoch time: 13317.84349773 Element set: 727 Inclination: 098.7094 deg RA of node: 324.3390 deg Eccentricity: 0.0009892 Arg of perigee: 177.5581 deg Mean anomaly: 304.8928 deg Mean motion: 14.21022157 rev/day Decay rate: 2.97e-06 rev/day^2 Epoch rev: 53791 Checksum: 352
Satellite: AO-51 Catalog number: 28375 Epoch time: 13318.83638010 Element set: 701 Inclination: 098.2232 deg RA of node: 268.4036 deg Eccentricity: 0.0082061 Arg of perigee: 280.4470 deg Mean anomaly: 111.1891 deg Mean motion: 14.41204165 rev/day Decay rate: 3.95e-06 rev/day^2 Epoch rev: 49303 Checksum: 277
Satellite: CP3 Catalog number: 31129 Epoch time: 13317.88118005 Element set: 598 Inclination: 097.9106 deg RA of node: 302.1915 deg Eccentricity: 0.0098737 Arg of perigee: 322.1069 deg Mean anomaly: 075.3193 deg Mean motion: 14.53957990 rev/day Decay rate: 1.937e-05 rev/day^2 Epoch rev: 34874 Checksum: 331
Satellite: CO-65 Catalog number: 32785 Epoch time: 13318.11759330 Element set: 787 Inclination: 097.7330 deg RA of node: 011.2481 deg Eccentricity: 0.0014585 Arg of perigee: 170.4677 deg Mean anomaly: 222.0771 deg Mean motion: 14.84294034 rev/day Decay rate: 1.982e-05 rev/day^2 Epoch rev: 30011 Checksum: 298
Satellite: PRISM Catalog number: 33493 Epoch time: 13318.86979886 Element set: 365 Inclination: 098.2333 deg RA of node: 121.0278 deg Eccentricity: 0.0018924 Arg of perigee: 064.5995 deg Mean anomaly: 295.7172 deg Mean motion: 14.86956470 rev/day Decay rate: 5.902e-05 rev/day^2 Epoch rev: 26030 Checksum: 342
Satellite: SOHLA-1 Catalog number: 33496 Epoch time: 13318.12918175 Element set: 197 Inclination: 098.1503 deg RA of node: 073.9020 deg Eccentricity: 0.0006437 Arg of perigee: 194.7629 deg Mean anomaly: 289.9740 deg Mean motion: 14.70439534 rev/day Decay rate: 8.00e-06 rev/day^2 Epoch rev: 25790 Checksum: 318
Satellite: SO-67 Catalog number: 35870 Epoch time: 13318.87340399 Element set: 611 Inclination: 097.1815 deg RA of node: 342.2824 deg Eccentricity: 0.0003156 Arg of perigee: 110.9605 deg Mean anomaly: 004.5739 deg Mean motion: 15.28780107 rev/day Decay rate: 1.0038e-04 rev/day^2 Epoch rev: 23126 Checksum: 297
Satellite: TISAT-1 Catalog number: 36799 Epoch time: 13318.78855930 Element set: 630 Inclination: 098.0293 deg RA of node: 044.3771 deg Eccentricity: 0.0013285 Arg of perigee: 302.1549 deg Mean anomaly: 057.8366 deg Mean motion: 14.83964126 rev/day Decay rate: 4.222e-05 rev/day^2 Epoch rev: 18090 Checksum: 321
Satellite: STUDSAT Catalog number: 36801 Epoch time: 13318.41382567 Element set: 713 Inclination: 098.0432 deg RA of node: 048.6882 deg Eccentricity: 0.0010168 Arg of perigee: 276.6041 deg Mean anomaly: 145.4362 deg Mean motion: 14.90455951 rev/day Decay rate: 1.4439e-04 rev/day^2 Epoch rev: 18107 Checksum: 298
Satellite: ALMASAT-1 Catalog number: 38078 Epoch time: 13318.61170524 Element set: 791 Inclination: 069.4788 deg RA of node: 210.0097 deg Eccentricity: 0.0664202 Arg of perigee: 313.2391 deg Mean anomaly: 041.4927 deg Mean motion: 14.33262516 rev/day Decay rate: 4.2229e-04 rev/day^2 Epoch rev: 9072 Checksum: 294
Satellite: XATCOBEO Catalog number: 38082 Epoch time: 13318.74492030 Element set: 675 Inclination: 069.4695 deg RA of node: 164.0653 deg Eccentricity: 0.0484137 Arg of perigee: 287.9675 deg Mean anomaly: 066.9134 deg Mean motion: 14.79598462 rev/day Decay rate: 8.1148e-04 rev/day^2 Epoch rev: 9199 Checksum: 360
Satellite: SOMP Catalog number: 39135 Epoch time: 13318.74562458 Element set: 371 Inclination: 064.8765 deg RA of node: 095.4238 deg Eccentricity: 0.0006563 Arg of perigee: 330.4207 deg Mean anomaly: 029.7041 deg Mean motion: 15.01447033 rev/day Decay rate: 7.511e-05 rev/day^2 Epoch rev: 3142 Checksum: 278
Satellite: CUBEBUG-1 Catalog number: 39153 Epoch time: 13318.84452810 Element set: 580 Inclination: 098.0638 deg RA of node: 034.5192 deg Eccentricity: 0.0017404 Arg of perigee: 323.6079 deg Mean anomaly: 036.3932 deg Mean motion: 14.76777434 rev/day Decay rate: 2.189e-05 rev/day^2 Epoch rev: 2991 Checksum: 313
Satellite: ESTCUBE-1 Catalog number: 39161 Epoch time: 13318.82370535 Element set: 549 Inclination: 098.1182 deg RA of node: 036.2209 deg Eccentricity: 0.0010431 Arg of perigee: 003.7481 deg Mean anomaly: 356.3817 deg Mean motion: 14.69252306 rev/day Decay rate: 1.868e-05 rev/day^2 Epoch rev: 2811 Checksum: 286
/EX SB KEPS @ AMSAT $ORB13318.W Orbital Elements 13318.WEATHER
HR AMSAT ORBITAL ELEMENTS FOR WEATHER SATELLITES FROM WA5QGD FORT WORTH,TX November 14, 2013 BID: ORB13318.W TO ALL RADIO AMATEURS BT
Satellite: NOAA-10 Catalog number: 16969 Epoch time: 13318.53771534 Element set: 568 Inclination: 098.5327 deg RA of node: 343.0095 deg Eccentricity: 0.0012910 Arg of perigee: 160.8615 deg Mean anomaly: 353.1126 deg Mean motion: 14.27681189 rev/day Decay rate: 1.47e-06 rev/day^2 Epoch rev: 41339 Checksum: 310
